sat.trackr.live / text

‹ back to catalog

STARLINK-2170

NORAD 47753 · 2021-017AH

PAYLOAD ACTIVE UNKNOWN

§ Identity

Operator
Country
US
Launch date
2021-03-04
Launch site
AFETR
Launch vehicle
Mass (kg)
RCS (m²)

Purposes: comms

External: N2YO · Heavens-Above · Gunter

§ Orbital elements

Epoch: 2026-09-19T19:46:41.401056Z

Period
93.85 min
Inclination
53.1583°
Eccentricity
0.0002403
Mean motion
15.34386070 rev/d
Perigee alt
461.1 km
Apogee alt
464.4 km
Semi-major
6,840.9 km
B*
9.5726e-4
RAAN
20.0650°
Arg perigee
340.2089°
Mean anomaly
19.8820°
Rev number
30,764

§ Raw data

STARLINK-21701 47753U 21017AH  26262.82409029  .00032092  00000+0  95726-3 0  99962 47753  53.1583  20.0650 0002403 340.2089  19.8820 15.34386070307646

JSON: /api/v1/satellites/47753 · /tle

For live sub-satellite position, see the globe view (requires WebGL).

§ Visibility from observer

Set your observer location to see the next 7 days of passes ≥ 10°. The values pass through the URL so the page stays shareable.

No JS? Fill the form by hand. The geolocation button needs JavaScript.